Presure
185 181 191 199 197 176 184 188 193 167 143 192 184 175 176 171 156 148 149 171 141 165 165 168 168 160 175 178 174 177 179 168 178 178 188 162 183 192 193 176 201 205 204
200 204 201 196 198 199 193 186 193 192 190 160 153 174 174 153 161 129 150 172 156 160 174 151 174 181 173 151 151 170 173 161 182 173 157 194 177 188 199 197 198 157 217
197 197 198 193 196 197 201 190 187 199 187 209 161 151 160 158 181 159 206 147 165 168 150 175 157 147 184 185 183 149 178 186 179 180 126 200 179 202 198 197 190 197 229
194 197 199 199 201 201 199 200 196 194 195 192 209 159 155 154 171 172 177 148 148 137 173 161 163 181 166 163 169 168 163 182 152 170 163 180 173 196 179 195 197 204 223
223 208 204 204 201 203 206 204 200 195 202 194 202 201 165 154 154 162 149 169 159 154 162 177 152 162 149 162 184 150 186 172 157 167 179 175 189 196 173 179 179 175 195
200 202 211 226 224 213 225 222 209 206 204 199 202 207 189 164 155 157 177 165 163 149 175 176 159 172 149 180 165 167 171 186 169 175 173 180 201 196 199 179 177 161 162
194 218 225 231 228 228 242 236 246 226 230 222 231 211 211 170 168 158 161 166 175 163 164 178 155 162 150 182 121 161 194 180 153 180 191 184 180 193 194 180 173 172 168
229 246 262 265 261 264 266 242 230 228 228 238 250 240 250 241 189 159 167 167 168 163 158 178 155 177 167 134 172 169 188 178 193 160 146 146 153 151 172 154 184 176 160
268 283 333 404 397 379 351 328 318 294 250 193 203 214 209 230 182 184 164 162 158 157 164 159 155 159 177 165 192 184 179 177 170 171 151 150 158 157 178 185 188 191 175
380 402 387 387 403 411 420 377 366 344 341 315 287 228 224 231 224 222 173 189 160 179 168 170 165 158 173 164 165 173 175 179 150 179 167 170 194 177 166 155 187 180 188
366 360 351 352 354 362 367 377 392 368 347 336 320 324 331 205 271 188 237 254 184 167 161 164 169 166 178 172 164 179 191 160 181 145 164 157 161 192 145 169 156 164 169
334 336 333 328 327 330 337 342 349 363 376 350 334 315 321 323 323 324 295 177 255 196 197 201 182 183 184 182 201 172 171 173 155 182 176 182 173 163 184 141 168 173 167
323 329 319 311 306 306 313 319 329 339 348 356 366 342 308 323 314 314 251 194 247 220 204 195 181 191 193 189 181 181 180 152 162 186 176 169 170 169 196 184 175 180 187
319 321 305 294 290 291 289 293 297 305 300 324 332 347 362 345 314 319 325 311 226 203 220 227 214 199 199 188 189 190 179 179 191 173 177 191 175 182 167 182 183 181 184
315 291 291 273 270 271 271 273 279 286 297 304 310 314 328 335 349 371 323 314 313 290 262 252 216 194 171 189 193 166 183 185 176 184 167 178 161 164 153 150 151 157 194
283 280 274 267 269 269 271 272 273 279 285 286 296 307 321 317 322 335 340 349 367 317 235 247 179 185 192 213 200 197 191 174 181 193 178 174 180 178 155 147 171 183 194
275 267 261 259 259 255 261 285 285 289 300 293 296 303 306 326 323 324 319 325 330 334 298 217 215 236 204 228 212 165 145 185 187 174 160 170 167 181 182 141 163 187 184
255 255 252 246 251 256 255 264 266 266 285 291 296 287 285 289 295 293 130 302 306 306 311 320 316 304 230 224 208 204 195 180 189 187 187 184 197 186 178 143 179 146 180
253 255 245 240 246 240 251 248 254 265 274 274 273 285 305 293 289 295 294 262 268 303 289 360 375 361 226 139 223 217 171 204 180 181 189 191 185 171 157 180 183 177 178
260 251 238 240 239 243 249 240 240 249 250 251 268 269 272 284 299 300 254 299 139 163 170 312 145 382 198 317 179 208 218 188 196 174 182 178 189 193 189 176 189 180 181
244 243 242 239 241 238 230 246 246 235 235 246 244 253 253 266 275 279 287 294 297 306 310 288 134 319 313 299 271 217 223 215 179 176 188 148 160 182 182 176 187 182 187
242 236 230 235 240 238 236 239 245 239 237 248 235 252 255 258 259 260 269 267 287 288 301 123 148 303 196 152 128 349 204 233 220 207 182 169 196 183 177 183 172 181 153
229 243 231 236 228 238 242 229 231 226 228 228 229 244 240 246 238 235 256 254 267 266 278 289 298 173 256 140 127 132 340 226 119 199 211 195 202 187 170 193 190 179 187
250 239 233 238 228 233 228 230 237 234 233 236 240 241 240 239 242 245 250 251 249 253 265 262 282 256 300 291 153 313 206 203 227 217 210 195 199 190 190 184 173 176 181
234 235 229 232 226 232 226 224 225 225 231 226 232 226 228 231 231 222 237 239 249 245 237 256 261 267 279 292 275 302 284 291 215 303 223 218 205 193 192 185 188 190 185
242 230 238 228 232 226 229 231 223 225 224 232 225 218 215 226 229 233 229 229 231 239 231 250 241 247 255 266 275 270 292 312 330 328 224 223 211 202 213 208 193 193 190
Wind_Speed
74 74 74 74 72 63 65 63 57 67 58 46 40 43 39 38 54 50 42 30 55 50 44 45 55 47 36 41 45 46 45 40 35 31 26 34 34 32 29 37 28 30 33
73 74 76 75 75 74 71 68 66 60 62 65 69 42 44 62 55 55 52 34 58 56 54 53 54 40 36 42 39 50 43 48 41 40 37 32 33 36 25 23 25 34 32
76 76 78 80 79 77 76 74 72 69 59 59 72 69 57 66 52 48 45 54 51 67 53 53 45 51 37 39 44 43 49 52 50 45 47 34 31 28 27 21 20 21 33
82 84 85 85 85 83 82 80 80 78 74 68 66 75 71 73 59 60 61 60 63 48 59 52 53 55 64 51 43 46 38 51 36 37 24 37 26 32 33 20 16 15 21
89 90 93 95 94 93 90 86 84 81 81 76 74 70 80 77 78 72 67 72 75 61 63 62 58 67 47 59 49 41 48 44 35 37 40 38 41 34 31 31 29 27 20
88 88 93 98 100 99 101 100 96 90 87 84 85 79 82 86 82 81 84 85 84 57 73 63 66 70 61 62 60 56 53 49 50 44 40 39 40 41 34 30 29 27 27
89 97 100 101 98 101 106 100 104 95 98 95 99 90 86 89 92 85 84 90 93 80 68 70 67 70 60 70 49 53 53 58 42 50 51 48 40 43 36 28 29 29 25
110 112 112 111 110 111 112 103 97 94 95 100 99 92 93 94 96 85 86 90 90 79 72 81 69 74 77 60 82 74 65 57 58 49 38 36 32 26 29 29 34 31 32
120 117 112 96 97 99 103 104 107 109 99 70 73 77 76 87 103 92 92 85 75 72 88 75 69 74 85 80 80 76 83 77 61 48 37 37 41 39 38 41 42 37 26
89 71 68 60 53 55 61 81 83 94 96 99 103 88 83 89 90 99 103 103 76 100 93 99 91 77 98 82 81 91 74 83 42 63 57 53 54 53 44 38 44 39 41
64 57 52 45 40 38 40 44 54 74 81 87 95 98 98 71 106 94 98 101 109 93 83 88 96 93 105 98 84 95 89 55 86 49 62 44 55 53 48 41 45 33 37
59 49 37 32 27 27 28 31 34 41 52 72 82 89 91 94 97 98 100 102 103 107 107 110 113 108 109 106 98 96 89 88 58 85 68 71 66 53 56 43 51 45 38
50 40 30 23 22 21 21 22 24 28 34 41 49 69 84 89 92 95 89 103 100 94 104 108 90 111 111 109 104 103 98 73 72 86 85 69 55 55 63 59 52 54 56
31 24 15 13 13 12 12 14 16 20 23 30 36 40 49 71 85 87 91 94 95 107 102 113 117 115 114 106 106 106 100 95 88 72 90 72 71 62 46 62 61 56 63
16 9 5 11 15 16 16 19 19 19 22 27 33 38 40 45 50 50 81 87 90 96 106 112 117 104 76 105 111 79 106 99 90 101 76 90 52 52 47 47 48 45 58
11 9 9 13 15 17 19 19 19 20 19 23 26 31 36 42 44 47 52 53 53 79 97 111 98 97 95 121 117 116 112 89 101 97 92 85 78 80 62 49 61 57 64
9 7 8 10 9 13 15 11 11 13 16 17 18 20 23 28 37 42 46 50 53 53 68 63 108 113 104 123 125 76 68 109 110 90 61 79 68 89 89 60 59 73 63
13 12 12 13 11 13 16 11 10 10 7 7 9 15 18 21 27 33 41 38 43 50 58 64 70 79 110 114 114 121 119 89 112 114 113 108 105 103 89 62 72 56 77
14 13 13 14 10 13 12 11 9 8 6 4 3 4 11 17 20 22 26 34 40 44 48 35 50 55 75 67 118 119 78 125 97 92 118 114 102 75 74 98 87 76 80
14 12 15 14 14 12 9 12 14 7 2 6 5 3 5 6 5 14 25 25 51 47 49 32 57 33 103 84 83 109 127 103 118 90 102 86 111 112 112 80 107 94 91
21 14 12 15 15 14 14 13 12 15 14 11 12 9 8 3 6 3 4 7 9 17 20 29 57 30 43 46 91 117 115 129 92 90 114 71 68 103 106 87 108 98 102
25 22 21 17 17 17 15 16 13 12 13 10 15 6 8 2 2 3 2 1 5 12 13 59 59 26 50 60 57 61 109 132 136 135 99 76 128 114 97 106 79 98 74
31 25 25 22 23 21 20 21 20 19 18 18 18 12 15 13 18 22 10 11 5 5 5 13 19 50 39 66 65 65 67 128 45 117 136 121 128 115 84 129 115 95 108
31 26 25 24 25 23 24 23 24 23 22 20 17 17 16 16 15 14 15 16 16 15 13 16 11 26 18 26 65 47 91 114 131 130 129 117 123 118 124 113 101 96 103
34 33 34 30 30 27 28 27 26 26 25 26 25 24 24 24 23 29 22 21 17 21 25 20 20 19 18 20 34 32 47 56 118 93 138 141 133 122 123 120 122 128 122
41 38 38 36 33 33 32 34 32 32 31 31 29 29 31 30 30 30 30 30 30 27 32 26 30 29 29 30 26 36 37 39 59 67 125 135 133 127 140 139 129 135 131
Wind_Direction
271 272 272 271 268 269 265 261 254 254 258 242 227 220 234 240 258 260 262 291 268 268 257 261 264 275 256 264 269 273 281 282 276 281 277 269 281 290 282 279 279 275 269
271 269 267 267 266 265 264 262 260 250 247 251 262 224 223 261 244 258 257 233 257 263 262 261 259 242 246 258 264 271 276 274 279 280 267 280 285 296 276 273 277 271 269
273 272 270 270 266 263 260 261 263 257 244 241 247 260 251 259 241 228 216 258 238 249 258 248 259 259 247 256 260 256 271 274 275 280 262 280 288 291 283 275 279 280 265
279 277 274 271 268 262 261 259 256 257 256 243 236 247 252 259 236 224 214 262 263 260 253 260 260 250 259 262 251 272 289 268 264 278 301 287 285 280 277 283 281 299 291
278 276 276 273 273 271 266 262 259 258 253 252 244 231 235 248 255 245 260 232 254 265 252 237 266 261 267 269 250 270 261 273 266 282 280 294 281 279 273 275 279 284 295
280 280 279 276 272 271 266 263 261 260 254 253 250 244 233 236 250 249 236 240 247 265 240 238 262 249 266 255 258 273 272 253 276 277 279 280 279 276 273 269 264 268 279
278 284 282 278 275 273 270 266 261 259 258 254 251 246 239 233 230 251 246 243 241 249 253 235 265 264 263 251 268 274 248 255 275 272 271 272 280 277 274 278 257 260 271
289 288 285 281 277 273 270 265 260 258 256 256 255 248 246 242 224 249 243 243 248 252 259 239 265 243 261 251 266 272 260 269 255 258 246 247 263 258 278 255 280 264 264
295 293 287 279 274 270 266 263 260 259 256 245 242 241 236 239 227 237 246 251 255 261 255 257 260 263 250 262 238 251 264 268 269 261 251 256 258 270 279 277 281 280 271
292 289 288 288 283 277 269 261 259 255 255 250 253 249 246 241 235 234 234 231 255 234 246 250 253 260 254 260 262 260 250 264 231 259 270 272 266 272 268 264 278 277 282
290 291 292 292 289 283 275 266 259 251 252 250 246 247 246 250 242 237 234 235 234 247 253 254 251 253 248 252 259 254 244 250 264 238 265 262 264 267 245 275 268 262 270
290 291 290 294 293 289 279 271 263 257 253 250 246 245 246 244 243 241 235 235 232 230 232 231 240 241 244 248 232 254 256 259 256 263 260 259 263 261 264 267 267 269 268
288 286 291 292 290 286 280 273 271 264 257 253 249 245 245 246 243 241 229 232 232 239 230 230 240 238 239 243 248 251 253 255 253 253 263 255 249 255 261 262 262 268 271
289 287 289 287 289 287 286 278 275 267 260 253 252 249 244 244 244 244 243 238 230 230 240 226 227 231 235 240 242 240 250 250 243 244 257 249 262 254 250 261 262 262 268
295 265 241 254 260 266 269 275 282 283 275 263 257 251 244 242 243 243 242 241 239 235 231 231 226 236 250 238 237 241 245 246 252 250 255 258 238 251 242 252 249 249 260
263 252 268 289 299 301 306 298 290 286 278 267 269 263 254 245 244 242 239 239 239 237 230 228 248 245 239 231 232 234 237 248 250 243 255 257 249 262 263 254 260 253 254
268 247 262 276 299 304 309 312 303 299 285 272 271 262 254 245 243 243 242 239 237 236 239 237 229 229 234 227 227 235 250 243 243 252 244 252 252 255 258 253 247 259 249
255 252 257 272 295 311 315 334 329 324 12 352 288 263 251 244 238 237 244 233 234 234 235 240 246 236 228 227 230 231 235 243 240 244 248 251 243 254 255 251 251 254 260
246 236 253 268 286 287 312 312 331 12 356 332 270 14 259 251 240 237 238 241 238 242 243 250 241 242 234 244 227 230 244 234 244 242 244 246 250 251 248 255 256 248 262
206 227 256 265 268 280 278 290 300 317 353 308 54 90 96 50 255 248 245 241 240 244 237 246 238 235 236 226 248 233 230 238 236 245 247 251 249 247 250 257 256 260 261
241 226 240 251 255 257 256 268 269 270 271 288 303 291 260 59 75 39 311 246 251 249 237 244 252 248 235 236 227 230 232 229 242 244 242 250 244 251 254 254 253 256 257
250 242 249 253 250 259 255 251 237 255 273 268 284 298 283 276 276 260 18 180 275 253 259 255 252 243 247 230 258 223 233 230 231 234 246 248 242 249 252 254 245 254 248
264 226 242 245 251 249 249 252 251 253 259 264 271 268 269 263 259 255 283 258 285 246 301 276 246 258 244 242 261 254 226 232 272 238 237 242 239 247 253 249 253 254 259
237 240 243 245 252 245 248 255 255 258 262 268 269 263 256 256 259 268 276 279 275 269 265 244 284 255 262 244 252 233 239 236 232 236 236 240 241 244 247 252 251 251 257
243 249 252 238 250 248 253 257 259 264 268 266 266 266 269 271 259 252 257 256 261 259 259 276 267 265 279 278 259 246 250 244 237 232 236 237 240 244 242 248 250 252 255
241 247 245 248 243 250 253 254 256 258 259 259 258 258 256 265 267 272 271 265 260 264 251 263 249 254 255 258 261 250 257 254 243 240 240 239 240 242 242 241 245 246 251